Zurück zum Katalog

STARLINK-31481

AktivKommunikationVLEO
NORAD 59541·PAYLOAD·🇺🇸 United States

Gestartet Apr 18, 2024 von Cape Canaveral Space Force Station

Loading…

Nächste Überflüge (nächste 24 Stunden)

TLE

AktuellSource: CelesTrak SupGP

Epoche: Sep 14, 2026, 20:41 UTC

1 59541C 24074H   26257.86229167  .00009218  00000+0  33387-3 0  2577
2 59541  43.0022 354.7362 0001507 269.8758 354.3620 15.27573343    19

Verfolge STARLINK-31481 in Echtzeit mit AllMySat

Download on the App Store